Location: Cortada Guamacho
(10.5667°N, 67.0833°W)
Time: 06:48:53
(UTC+00:00)

Tiangong - Pass Details

Date: 26 November 2022
Orbit: 383 x 386 km, 41.5° (Epoch: 02 February)

Event Time Altitude Azimuth Distance (km) Brightness Sun altitude
Exits shadow 09:10:28 11° 205° (SSW) 1,352 0.5 -18.8°
Drops below altitude 10° 09:10:55 10° 197° (SSW) 1,424 0.7 -18.7°
Sets 09:13:55 0° 167° (SSE) 2,278 2.2 -18.0°
